STARLINK-33666, 63592

Orbit data source: Space-Track

STARLINK-33666, 63592 is a payload satellite owned by SpaceX/Seattle (US) in LEO that was launched on Mon, 14 Apr 2025 UTC via an FALCON 9 launch vehicle from the Air Force Eastern Test Range (AFETR). Payload-class satellites include a variety of spacecraft equipped with specific instruments for various scientific and technological missions. These include communications satellites like Starlink; space stations such as the ISS; scientific satellites like the Hubble; Earth observation satellites from companies like Planet Labs, Umbra, and HawkEye 360; GPS; miniature CubeSats for education and research; and military/defense satellites.

Loading next visibility...
Identifier
63592, 2025-076Z
Orbit
LEO
Country
Flag of USUS
Related business
Manufacturer
SpaceX/Seattle
Mission
Operational Commercial Communications
Bus & Motor
STARLINK V2MO, Unknown motor
Mass
575 kg wet, ~530 kg dry
Launch date (UTC)
2025-04-14 (8 months ago)
Launch vehicle
FALCON 9
Launch site
Air Force Eastern Test Range (AFETR)
Object type
Payload
Rocket body
Debris
Shape & HBR
Box + 2 Pan, 17.7 m
Radar Cross Section
36.964 m², Large (>1 m²)

Expand to show TLE details & history
Last TLE update: 1 day ago

TLE from 1 day ago
0 STARLINK-33666
1 63592U 25076Z   25347.34790809  .00049211  00000-0  17844-2 0  9999
2 63592  43.0024  89.4647 0001146 239.4217 120.6522 15.27607619 38629
Epoch: 2025-12-13T08:20Z
TLE epoch observation values (Epoch: 2025-12-13T08:20:59.258Z)
Latitude
-0.00002°
Longitude
-118.0587°
Altitude
483.143 km
Speed
7.625 km/s
True Right ascension
05h 57m 51s
True Declination
0° 00' 00"
Sunlit
Object was in full shadow at epoch
Visualization orbit readout
Latitude
Unknown
Longitude
Unknown
Altitude
Unknown
Speed
Unknown
Apparent Right ascension
Unknown
Apparent Declination
Unknown
Sunlit
N/A
Visualization observer readout
Local Sidereal Time
06:29:16
Azimuth
Unknown
Elevation
Unknown
Doppler factor
Unknown
Orbital elements
Apogee altitude
485.698 km
Perigee altitude
484.125 km
Semi-major axis
6,863.048 km
Eccentricity
0.00011
Inclination
43.0024°
RAAN
89.4647°
Arg. of periapsis
239.4217°
True anomaly
120.6635°
Mean anomaly
120.6522°
Eccentric anomaly
120.65785°
Mean motion
3.8174 °/min
Orbital period
94.31 mins
BSTAR
0.0017844
Loading maneuver chart data...
Computing Atmospheric mass density...
Loading historical data...
Loading historical data...
Loading historical data...
Loading historical data...
Loading historical data...
Loading historical data...
Loading historical data...

Documentation

Showing up to 5 results
|